UPS375 KCLE-KCMH

Flight info

Callsign UPS375
Flight time 0h 22m
Altitude 20000
Route LBRON WAAHU BUGZZ CBUSS2
Aircraft A306/H-SDE3FGHIRWY/LB1

Departure

Time 2026-05-09 01:27
Airport Cleveland Hopkins International Airport (KCLE)

Arrival

Time 2026-05-09 01:50
Airport John Glenn Columbus International Airport (KCMH)
Time Latitude Longitude Altitude Speed Heading
2026-05-09 01:09 41.40433 -81.84448 798 ft 0 kts 270°
2026-05-09 01:20 41.40433 -81.84439 798 ft 3 kts 270°
2026-05-09 01:20 41.40433 -81.84403 798 ft 3 kts 270°
2026-05-09 01:21 41.40433 -81.84386 798 ft 0 kts 270°
2026-05-09 01:21 41.40434 -81.84390 798 ft 1 kts 286°
2026-05-09 01:21 41.40447 -81.84393 798 ft 4 kts 28°
2026-05-09 01:21 41.40505 -81.84367 798 ft 9 kts 359°
2026-05-09 01:22 41.40580 -81.84373 797 ft 11 kts 341°
2026-05-09 01:22 41.40659 -81.84428 796 ft 14 kts 354°
2026-05-09 01:22 41.40767 -81.84433 796 ft 16 kts 359°
2026-05-09 01:22 41.40884 -81.84423 796 ft 17 kts 31°
2026-05-09 01:23 41.40994 -81.84377 797 ft 17 kts
2026-05-09 01:23 41.41124 -81.84380 795 ft 20 kts 358°
2026-05-09 01:23 41.41250 -81.84353 794 ft 15 kts 343°
2026-05-09 01:23 41.41335 -81.84291 794 ft 15 kts 51°
2026-05-09 01:24 41.41387 -81.84207 794 ft 9 kts 51°
2026-05-09 01:24 41.41405 -81.84177 794 ft 0 kts 50°
2026-05-09 01:24 41.41410 -81.84171 794 ft 2 kts 45°
2026-05-09 01:25 41.41441 -81.84148 794 ft 6 kts
2026-05-09 01:25 41.41490 -81.84176 794 ft 8 kts 322°
2026-05-09 01:25 41.41503 -81.84246 794 ft 9 kts 237°
2026-05-09 01:25 41.41499 -81.84255 794 ft 0 kts 231°
2026-05-09 01:26 41.41480 -81.84284 794 ft 24 kts 231°
2026-05-09 01:26 41.41214 -81.84707 793 ft 94 kts 229°
2026-05-09 01:27 41.40644 -81.85609 783 ft 156 kts 229°
2026-05-09 01:27 41.39843 -81.86844 1063 ft 181 kts 220°
2026-05-09 01:27 41.38770 -81.87561 1732 ft 180 kts 198°
2026-05-09 01:27 41.37537 -81.87917 2456 ft 184 kts 192°
2026-05-09 01:28 41.36269 -81.88157 3164 ft 191 kts 192°
2026-05-09 01:28 41.34873 -81.88383 3609 ft 213 kts 192°
2026-05-09 01:28 41.33352 -81.88620 4148 ft 231 kts 191°
2026-05-09 01:28 41.31723 -81.88869 4816 ft 242 kts 193°
2026-05-09 01:29 41.29998 -81.89126 5486 ft 254 kts 191°
2026-05-09 01:29 41.28265 -81.89371 6304 ft 259 kts 191°
2026-05-09 01:29 41.26435 -81.89629 7026 ft 268 kts 191°
2026-05-09 01:29 41.24585 -81.89896 7875 ft 270 kts 192°
2026-05-09 01:30 41.22728 -81.90167 8609 ft 273 kts 191°
2026-05-09 01:30 41.20855 -81.90505 9241 ft 273 kts 202°
2026-05-09 01:30 41.19161 -81.91583 9847 ft 272 kts 216°
2026-05-09 01:30 41.17560 -81.92977 10362 ft 281 kts 218°
2026-05-09 01:31 41.15859 -81.94434 10577 ft 301 kts 216°
2026-05-09 01:31 41.14003 -81.95930 10737 ft 323 kts 214°
2026-05-09 01:31 41.11996 -81.97481 10903 ft 344 kts 214°
2026-05-09 01:31 41.09883 -81.99075 11178 ft 360 kts 213°
2026-05-09 01:32 41.07684 -82.00713 11738 ft 366 kts 213°
2026-05-09 01:32 41.05481 -82.02342 12474 ft 366 kts 213°
2026-05-09 01:32 41.03244 -82.03999 13172 ft 368 kts 213°
2026-05-09 01:32 41.00994 -82.05664 13720 ft 372 kts 213°
2026-05-09 01:33 40.98744 -82.07337 14336 ft 374 kts 213°
2026-05-09 01:33 40.96460 -82.09005 14891 ft 378 kts 212°
2026-05-09 01:33 40.94108 -82.10551 15469 ft 381 kts 210°
2026-05-09 01:33 40.91682 -82.12061 15931 ft 386 kts 210°
2026-05-09 01:34 40.89264 -82.13550 16384 ft 390 kts 210°
2026-05-09 01:34 40.86797 -82.15063 16878 ft 393 kts 211°
2026-05-09 01:34 40.84307 -82.16592 17379 ft 395 kts 211°
2026-05-09 01:34 40.81836 -82.18120 17831 ft 397 kts 211°
2026-05-09 01:35 40.79317 -82.19676 18233 ft 402 kts 211°
2026-05-09 01:35 40.76778 -82.21242 18696 ft 404 kts 211°
2026-05-09 01:35 40.74255 -82.22793 19157 ft 404 kts 212°
2026-05-09 01:35 40.71700 -82.24360 19572 ft 406 kts 211°
2026-05-09 01:36 40.69116 -82.25948 19924 ft 407 kts 212°
2026-05-09 01:36 40.66546 -82.27526 19987 ft 408 kts 212°
2026-05-09 01:36 40.63995 -82.29092 19706 ft 401 kts 211°
2026-05-09 01:36 40.61484 -82.30635 18917 ft 401 kts 211°
2026-05-09 01:37 40.58982 -82.32179 17946 ft 404 kts 211°
2026-05-09 01:37 40.56434 -82.33744 17268 ft 399 kts 211°
2026-05-09 01:37 40.53946 -82.35261 16653 ft 393 kts 211°
2026-05-09 01:37 40.51512 -82.36742 16029 ft 387 kts 211°
2026-05-09 01:38 40.49078 -82.38228 15303 ft 385 kts 210°
2026-05-09 01:38 40.46675 -82.39703 14590 ft 381 kts 210°
2026-05-09 01:38 40.44302 -82.41146 13930 ft 376 kts 210°
2026-05-09 01:38 40.41941 -82.42583 13229 ft 373 kts 210°
2026-05-09 01:39 40.39578 -82.44016 12377 ft 373 kts 209°
2026-05-09 01:39 40.37266 -82.45422 11726 ft 368 kts 209°
2026-05-09 01:39 40.34973 -82.46809 11144 ft 362 kts 209°
2026-05-09 01:39 40.32683 -82.48199 10449 ft 358 kts 209°
2026-05-09 01:40 40.30445 -82.49564 9713 ft 356 kts 209°
2026-05-09 01:40 40.28248 -82.50896 9336 ft 340 kts 209°
2026-05-09 01:40 40.26172 -82.52148 8856 ft 318 kts 209°
2026-05-09 01:40 40.24265 -82.53404 8441 ft 292 kts 220°
2026-05-09 01:41 40.23089 -82.55318 8191 ft 263 kts 251°
2026-05-09 01:41 40.22619 -82.57518 7896 ft 244 kts 247°
2026-05-09 01:41 40.21608 -82.59203 7587 ft 232 kts 217°
2026-05-09 01:41 40.20108 -82.59904 7466 ft 229 kts 188°
2026-05-09 01:42 40.18530 -82.59628 7254 ft 230 kts 173°
2026-05-09 01:42 40.17001 -82.59109 6959 ft 227 kts 172°
2026-05-09 01:42 40.15464 -82.58572 6581 ft 227 kts 173°
2026-05-09 01:42 40.13964 -82.58035 6290 ft 224 kts 172°
2026-05-09 01:43 40.12454 -82.57515 5955 ft 223 kts 172°
2026-05-09 01:43 40.10960 -82.57008 5628 ft 221 kts 172°
2026-05-09 01:43 40.09460 -82.56815 5197 ft 214 kts 190°
2026-05-09 01:43 40.07992 -82.57001 4836 ft 213 kts 192°
2026-05-09 01:44 40.06540 -82.57217 4536 ft 210 kts 192°
2026-05-09 01:44 40.05097 -82.57475 4178 ft 208 kts 202°
2026-05-09 01:44 40.03942 -82.58443 3911 ft 195 kts 234°
2026-05-09 01:44 40.03235 -82.59947 3680 ft 198 kts 242°
2026-05-09 01:45 40.02573 -82.61569 3432 ft 204 kts 242°
2026-05-09 01:45 40.01916 -82.63196 3183 ft 202 kts 243°
2026-05-09 01:45 40.01271 -82.64794 3039 ft 191 kts 243°
2026-05-09 01:45 40.00674 -82.66245 2971 ft 175 kts 242°
2026-05-09 01:46 40.00112 -82.67615 2975 ft 171 kts 242°
2026-05-09 01:46 39.99556 -82.68980 2980 ft 168 kts 242°
2026-05-09 01:46 39.99022 -82.70278 3000 ft 155 kts 242°
2026-05-09 01:46 39.98742 -82.71581 3077 ft 157 kts 275°
2026-05-09 01:47 39.99140 -82.73038 3108 ft 173 kts 285°
2026-05-09 01:47 39.99395 -82.74515 3077 ft 168 kts 275°
2026-05-09 01:47 39.99515 -82.76008 2937 ft 163 kts 269°
2026-05-09 01:47 39.99551 -82.77438 2717 ft 157 kts 268°
2026-05-09 01:48 39.99569 -82.78828 2506 ft 148 kts 275°
2026-05-09 01:48 39.99707 -82.80111 2205 ft 137 kts 272°
2026-05-09 01:48 39.99779 -82.81341 1888 ft 135 kts 273°
2026-05-09 01:48 39.99836 -82.82554 1640 ft 133 kts 272°
2026-05-09 01:49 39.99912 -82.83750 1474 ft 137 kts 274°
2026-05-09 01:49 39.99834 -82.84975 1373 ft 134 kts 242°
2026-05-09 01:49 39.99268 -82.86011 1183 ft 143 kts 246°
2026-05-09 01:49 39.99156 -82.87258 924 ft 144 kts 275°
2026-05-09 01:50 39.99229 -82.88485 818 ft 100 kts 275°
2026-05-09 01:50 39.99258 -82.89006 818 ft 26 kts 275°
2026-05-09 01:50 39.99340 -82.89114 818 ft 16 kts
2026-05-09 01:50 39.99409 -82.89111 818 ft 9 kts 346°